Location: Deneb Observatory
(47.2267°N, 100.4953°W)
Time: 18:23:11
(UTC-06:00)

Iridium 66 - Visible Passes

Search period start: 29 January 2015 00:00
Search period end: 08 February 2015 00:00
Orbit: 776 x 779 km, 86.4° (Epoch: 29 January)

Date Brightness Start Highest point End Pass type
(mag) Time Alt. Az. Time Alt. Az. Time Alt. Az.
29 Jan 8.6 06:16:18 10° SE 06:20:09 22° E 06:24:10 10° NNE visible
29 Jan 6.2 18:21:52 10° N 18:26:55 48° E 18:31:58 10° SSE visible
29 Jan 8.3 20:03:14 10° NNW 20:07:23 24° W 20:11:24 10° SW visible
30 Jan 9.1 05:44:51 10° E 05:46:56 13° ENE 05:49:18 10° NE visible
30 Jan 6.1 07:21:45 10° S 07:26:58 90° N 07:32:14 10° N visible
30 Jan 7.4 19:29:11 10° NNW 19:34:03 40° W 19:38:52 10° SSW visible
31 Jan 7.0 06:48:28 10° SSE 06:53:29 52° E 06:58:34 10° NNE visible
31 Jan 6.4 18:55:25 10° N 19:00:38 70° W 19:05:49 10° S visible
01 Feb 8.0 06:15:40 10° SE 06:20:07 30° E 06:24:40 10° NNE visible
01 Feb 6.0 18:21:52 10° N 18:27:05 68° E 18:32:17 10° SSE visible
01 Feb 8.9 20:03:55 10° NW 20:07:19 17° WNW 20:10:31 10° WSW visible
02 Feb 8.8 05:43:31 10° ESE 05:46:50 18° ENE 05:50:21 10° NE visible
02 Feb 6.0 07:21:55 10° SSW 07:27:05 65° W 07:32:18 10° N visible
02 Feb 8.1 19:29:33 10° NNW 19:34:03 29° W 19:38:27 10° SW visible
03 Feb 6.3 06:48:21 10° S 06:53:32 73° E 06:58:46 10° N visible
03 Feb 7.0 18:55:38 10° NNW 19:00:40 50° W 19:05:41 10° SSW visible
04 Feb 7.4 06:15:16 10° SSE 06:20:06 42° E 06:25:01 10° NNE visible
04 Feb 6.1 18:21:57 10° N 18:27:13 87° W 18:32:26 10° S visible
04 Feb 9.2 20:05:02 10° NW 20:07:12 12° WNW 20:09:06 10° W visible
05 Feb 8.3 05:42:41 10° SE 05:46:46 25° E 05:50:59 10° NNE visible
05 Feb 6.3 07:22:15 10° SSW 07:27:16 46° W 07:32:18 10° N visible
05 Feb 8.7 19:30:05 10° NNW 19:34:00 21° W 19:37:46 10° SW visible
06 Feb 9.0 05:10:56 10° ESE 05:13:32 14° ENE 05:16:22 10° NE visible
06 Feb 6.0 06:48:25 10° S 06:53:38 81° W 06:58:54 10° N visible
06 Feb 7.8 18:55:56 10° NNW 19:00:41 36° W 19:05:23 10° SSW visible
07 Feb 6.7 06:15:03 10° SSE 06:20:08 59° E 06:25:17 10° N visible
07 Feb 6.7 18:22:06 10° N 18:27:17 63° W 18:32:25 10° SSW visible
